Johnstown, PA

2:12 AM EDT on August 22, 2017 (GMT -0400)
Johnstown-Cambria County

Weather History for KJST - March, 2013

Change the Weather History Date:

Wednesday, March 6, 2013

  Actual Average Record
Temperature  
Mean Temperature 30 °F 32 °F  
Max Temperature 34 °F 40 °F 75 °F (1946)
Min Temperature 26 °F 24 °F -2 °F (2015)
Degree Days  
Heating Degree Days 35 33  
Month to date heating degree days 203  
Since 1 July heating degree days 5082  
Cooling Degree Days 0 0  
Month to date cooling degree days 0  
Year to date cooling degree days 0  
Moisture  
Dew Point 24 °F    
Average Humidity 83    
Maximum Humidity 96    
Minimum Humidity 64    
Precipitation  
Precipitation 0.26 in 0.09 in 2.00 in (1945)
Month to date precipitation 0.46  
Year to date precipitation 5.69  
Sea Level Pressure  
Sea Level Pressure 29.83 in    
Wind  
Wind Speed 11 mph (NE)    
Max Wind Speed 16 mph    
Max Gust Speed 26 mph    
Visibility 4 miles    
Events Fog , Rain , Snow    
T = Trace of Precipitation, MM = Missing Value Source: NWS Daily Summary

Daily Weather History Graph

Daily Weather History Graph

Search for Another Location

Airport or City:

Trip Planner

Search our weather history database for the weather conditions in past years. The results will help you decide how hot, cold, wet, or windy it might be!

Date:

Astronomy

Mar. 06, 2013 Rise Set
Actual Time 6:40 AM EST 6:12 PM EST
Civil Twilight 6:13 AM EST 6:39 PM EST
Nautical Twilight 5:42 AM EST 7:11 PM EST
Astronomical Twilight 5:10 AM EST 7:43 PM EST
Moon 2:49 AM EST (3/6) 12:52 PM EST (3/6)
Length of Visible Light 12h 26m
Length of Day
11h 31m
Waning Crescent, 30% of the Moon is Illuminated
Mar 6
Waning Crescent
Mar 11
New
Mar 19
First Quarter
Mar 27
Full
Apr 3
Last Quarter

Hourly Weather History & Observations

Time (EST) Temp. Windchill Dew Point Humidity Pressure Visibility Wind Dir Wind Speed Gust Speed Precip Events Conditions
12:16 AM 30.2 °F 18.9 °F 21.2 °F 69% 29.64 in 2.0 mi ESE 16.1 mph 26.5 mph 0.00 in Snow Light Snow
12:19 AM 28.4 °F 17.5 °F 23.0 °F 80% 29.64 in 1.5 mi ESE 13.8 mph 26.5 mph 0.00 in Snow Light Snow
12:54 AM 28.0 °F 17.5 °F 24.1 °F 85% 29.70 in 1.0 mi East 12.7 mph 25.3 mph 0.00 in Snow Light Snow
1:12 AM 26.6 °F 14.7 °F 24.8 °F 93% 29.64 in 0.8 mi East 15.0 mph 25.3 mph 0.00 in Snow Light Snow
1:46 AM 26.6 °F 15.7 °F 24.8 °F 93% 29.64 in 0.8 mi ESE 12.7 mph 21.9 mph 0.01 in Snow Light Snow
1:54 AM 27.0 °F 16.7 °F 25.0 °F 92% 29.70 in 0.5 mi East 11.5 mph 21.9 mph 0.01 in Fog , Snow Snow
2:54 AM 28.0 °F 20.0 °F 25.0 °F 88% 29.69 in 0.8 mi East 8.1 mph 17.3 mph 0.01 in Snow Light Snow
3:54 AM 27.0 °F 19.5 °F 25.0 °F 92% 29.72 in 0.5 mi East 6.9 mph 20.7 mph 0.03 in Fog , Snow Snow
4:54 AM 27.0 °F 19.5 °F 25.0 °F 92% 29.74 in 0.5 mi ENE 6.9 mph - 0.07 in Fog , Snow Snow
5:54 AM 27.0 °F 20.5 °F 25.0 °F 92% 29.76 in 0.5 mi ENE 5.8 mph - 0.04 in Fog , Snow Snow
6:02 AM 26.6 °F 18.2 °F 24.8 °F 93% 29.69 in 0.8 mi ENE 8.1 mph - 0.01 in Snow Light Snow
6:54 AM 26.1 °F 19.4 °F 25.0 °F 96% 29.78 in 0.5 mi ENE 5.8 mph - 0.05 in Fog , Snow Snow
7:01 AM 26.6 °F 17.5 °F 24.8 °F 93% 29.71 in 0.2 mi NE 9.2 mph - 0.01 in Fog , Snow Snow
7:08 AM 26.6 °F 19.1 °F 24.8 °F 93% 29.72 in 0.5 mi ENE 6.9 mph - 0.01 in Fog , Snow Snow
7:15 AM 26.6 °F 19.1 °F 24.8 °F 93% 29.72 in 0.2 mi NE 6.9 mph - 0.02 in Fog , Snow Snow
7:31 AM 26.6 °F 19.1 °F 24.8 °F 93% 29.72 in 0.5 mi ENE 6.9 mph - 0.02 in Fog , Snow Snow
7:47 AM 26.6 °F 18.2 °F 24.8 °F 93% 29.73 in 0.5 mi NE 8.1 mph - 0.03 in Fog , Snow Snow
7:54 AM 27.0 °F 18.0 °F 25.0 °F 92% 29.81 in 0.5 mi ENE 9.2 mph - 0.03 in Fog , Snow Snow
8:06 AM 26.6 °F 17.5 °F 24.8 °F 93% 29.74 in 0.2 mi ENE 9.2 mph - 0.00 in Fog , Snow Snow
8:14 AM 26.6 °F 17.5 °F 24.8 °F 93% 29.74 in 0.2 mi NE 9.2 mph - 0.01 in Fog , Snow Snow
8:33 AM 26.6 °F 16.2 °F 24.8 °F 93% 29.75 in 0.5 mi NE 11.5 mph - 0.01 in Fog , Snow Snow
8:47 AM 26.6 °F 16.8 °F 24.8 °F 93% 29.76 in 0.5 mi NNE 10.4 mph - 0.01 in Fog , Snow Snow
8:54 AM 27.0 °F 17.3 °F 25.0 °F 92% 29.83 in 0.5 mi NNE 10.4 mph - 0.02 in Fog , Snow Snow
9:47 AM 28.4 °F 19.1 °F 26.6 °F 93% 29.79 in 0.8 mi NE 10.4 mph - 0.00 in Snow Light Snow
9:54 AM 28.0 °F 18.6 °F 26.1 °F 92% 29.86 in 0.8 mi NNE 10.4 mph - 0.00 in Snow Light Snow
10:19 AM 28.4 °F 19.7 °F 26.6 °F 93% 29.80 in 1.0 mi NNE 9.2 mph - 0.00 in Snow Light Snow
10:54 AM 28.9 °F 20.4 °F 26.1 °F 89% 29.89 in 0.8 mi NNE 9.2 mph - 0.00 in Snow Light Snow
11:08 AM 28.4 °F 19.1 °F 26.6 °F 93% 29.83 in 1.0 mi NNE 10.4 mph - 0.00 in Snow Light Snow
11:23 AM 30.2 °F 21.3 °F 26.6 °F 86% 29.83 in 2.5 mi NNE 10.4 mph - 0.00 in Snow Light Snow
11:25 AM 30.2 °F 20.8 °F 26.6 °F 86% 29.83 in 3.0 mi NNE 11.5 mph - 0.00 in Snow Light Snow
11:34 AM 30.2 °F 22.6 °F 26.6 °F 86% 29.84 in 7.0 mi NNE 8.1 mph 18.4 mph 0.00 in Snow Light Snow
11:54 AM 30.9 °F 21.2 °F 25.0 °F 79% 29.91 in 10.0 mi NE 12.7 mph - 0.00 in   Mostly Cloudy
12:54 PM 33.1 °F 23.4 °F 25.0 °F 72% 29.92 in 10.0 mi NNE 13.8 mph 17.3 mph 0.00 in Rain Light Rain
1:54 PM 34.0 °F 25.5 °F 24.1 °F 67% 29.93 in 10.0 mi North 11.5 mph - 0.00 in   Overcast
2:34 PM 33.8 °F 26.4 °F 23.0 °F 65% 29.88 in 10.0 mi NNE 9.2 mph - N/A   Overcast
2:54 PM 34.0 °F 25.5 °F 24.1 °F 67% 29.95 in 10.0 mi North 11.5 mph - N/A   Overcast
3:01 PM 33.8 °F 24.8 °F 23.0 °F 65% 29.88 in 10.0 mi North 12.7 mph - N/A   Overcast
3:54 PM 34.0 °F 25.5 °F 23.0 °F 64% 29.97 in 10.0 mi North 11.5 mph - N/A   Overcast
4:54 PM 34.0 °F 26.6 °F 23.0 °F 64% 30.00 in 10.0 mi North 9.2 mph - N/A   Overcast
5:54 PM 33.1 °F 26.1 °F 23.0 °F 66% 30.03 in 10.0 mi NNW 8.1 mph - N/A   Overcast
6:54 PM 33.1 °F 26.1 °F 23.0 °F 66% 30.04 in 10.0 mi NW 8.1 mph - N/A   Overcast
7:54 PM 32.0 °F 26.4 °F 21.9 °F 66% 30.04 in 10.0 mi NNW 5.8 mph - N/A   Overcast
8:54 PM 32.0 °F 24.2 °F 21.9 °F 66% 30.07 in 10.0 mi NNW 9.2 mph - N/A   Overcast
9:54 PM 30.9 °F 22.8 °F 21.9 °F 69% 30.08 in 10.0 mi NW 9.2 mph - N/A   Overcast
10:54 PM 30.9 °F 23.5 °F 21.9 °F 69% 30.09 in 10.0 mi NW 8.1 mph - N/A   Overcast
11:54 PM 30.9 °F 23.5 °F 21.9 °F 69% 30.08 in 10.0 mi WNW 8.1 mph - N/A   Overcast